Location: Eckley
(40.9930°N, 75.8630°W)
Time: 00:25:23
(UTC-05:00)

Daily predictions for brighter satellites

Satellite Brightness Start Highest point End
(mag) Time Altitude Azimuth Time Altitude Azimuth Time Altitude Azimuth
Cosmos 2369 Rocket 4.2 03:14:21 23° NNE 03:14:21 23° NNE 03:16:24 10° NNE
Lacrosse 5 4.0 03:28:19 24° ENE 03:28:19 24° ENE 03:30:23 10° NE
USA 234 4.0 03:35:12 10° ENE 03:41:23 43° SE 03:41:53 43° SE
ATLAS 5 CENTAUR R/B 3.5 03:46:24 29° NE 03:46:24 29° NE 03:48:57 10° NE
Cosmos 1943 Rocket 2.9 03:51:54 48° NE 03:51:54 48° NE 03:55:58 10° NNE
CZ-4C R/B 3.3 03:54:45 36° SE 03:55:17 36° ESE 04:00:31 10° NE
Cosmos 1452 Rocket 4.4 04:02:10 41° SE 04:03:04 45° ESE 04:08:05 10° NNE
CZ-4B R/B 3.4 03:58:24 10° NNE 04:03:29 71° NE 04:03:29 71° NE
Lacrosse 5 rocket 4.0 04:12:44 11° NNE 04:12:49 11° NNE 04:13:47 10° NE
ADEOS II 2.2 04:09:43 10° NNE 04:14:12 65° N 04:14:12 65° N
Cosmos 676 Rocket 4.1 04:20:01 28° NNW 04:22:52 78° ENE 04:28:11 10° SSE
Okean O Rocket 3.9 04:18:54 10° N 04:19:45 15° N 04:19:45 15° N
Cosmos 1140 Rocket 4.1 04:27:00 10° NNW 04:32:10 57° ENE 04:37:19 10° SSE
Cosmos 2221 Rocket 3.7 04:38:26 31° S 04:40:36 78° E 04:45:09 10° N
Meteor 1-26 Rocket 4.1 04:41:38 22° SSW 04:45:25 79° W 04:51:03 10° N
Nadezhda 2 Rocket 4.4 04:40:27 10° NNW 04:46:24 57° W 04:52:23 10° S
Okean 1-7 3.0 04:45:42 22° S 04:48:23 79° E 04:52:38 10° N
Cosmos 1656 Rocket 3.6 04:50:01 31° SSW 04:52:53 78° WNW 04:58:37 10° NNE
Cosmos 2219 3.3 04:48:37 10° NNW 04:54:19 75° ENE 04:59:56 10° SSE
Cosmos 2369 Rocket 3.7 04:56:10 19° NW 04:56:10 19° NW 04:59:23 10° N
Meteor 1-31 Rocket 2.6 04:53:51 10° N 04:57:44 72° WNW 04:58:26 55° SW
Cosmos 2227 Rocket 4.2 04:53:19 10° N 04:58:07 27° NE 05:02:53 10° ESE
GEOS 3 Rocket 3.8 04:56:33 10° SSE 05:01:25 46° WSW 05:02:58 35° WNW
ATLAS CENTAUR R/B 4.1 04:59:20 31° W 05:01:57 39° SW 05:17:15 10° SSE
Cosmos 1850 Rocket 4.3 05:00:07 10° NNW 05:05:28 72° ENE 05:10:45 10° SSE
Cosmos 1782 Rocket 3.6 05:03:13 10° NNW 05:07:35 54° W 05:11:54 10° S
Cosmos 1417 Rocket 4.4 05:01:29 10° SSW 05:07:36 64° W 05:13:42 10° N
Cosmos 1745 Rocket 4.0 05:01:29 10° N 05:07:40 84° E 05:13:47 10° S
Lacrosse 5 2.8 05:07:32 28° NW 05:08:38 31° NNW 05:13:08 10° NNE
Cosmos 1954 Rocket 4.2 05:06:32 10° NNW 05:11:38 48° WSW 05:16:43 10° S
Ariane Rocket 4.4 05:11:01 10° NNE 05:15:48 40° E 05:20:33 10° SSE
Meteor 1-10 Rocket 4.4 05:12:45 10° S 05:18:17 74° E 05:23:56 10° NNE
Cosmos 1420 Rocket 3.9 05:13:54 12° SSW 05:18:39 62° WNW 05:23:48 10° NNE
SKYMED 2 3.5 05:15:33 10° SSE 05:19:53 87° E 05:24:15 10° NNW
Meteor 2-10 Rocket 3.9 05:17:38 23° SW 05:20:01 37° WNW 05:24:43 10° N
Cosmos 1633 4.5 05:17:27 10° NNE 05:20:47 33° ENE 05:24:03 10° SE
Okean-O 3.0 05:16:52 10° N 05:21:02 41° WNW 05:23:59 18° SW
ERS-2 4.2 05:21:00 10° NNW 05:21:59 14° NW 05:21:59 14° NW
NOAA 6 3.9 05:18:35 10° N 05:23:44 72° WNW 05:28:50 10° SSW
USA 234 3.4 05:18:06 10° NE 05:24:28 57° NW 05:29:16 18° WSW
Tiangong 1 1.0 05:24:16 42° WNW 05:25:01 62° N 05:27:55 10° ENE
ATLAS 5 CENTAUR R/B 3.5 05:27:58 16° NW 05:29:18 17° NW 05:32:44 10° N
Cosmos 1674 Rocket 4.3 05:27:44 10° S 05:32:01 55° E 05:36:23 10° NNE
Cosmos 1943 Rocket 3.6 05:33:27 17° WNW 05:34:45 18° NW 05:38:33 10° N
Okean 2 Rocket 3.6 05:32:05 10° NNW 05:36:05 35° W 05:40:05 10° SSW
Radarsat Rocket 4.2 05:30:37 10° NNE 05:37:51 77° WNW 05:44:11 10° SSW
DMSP B5D1-3 4.4 05:33:01 10° SSE 05:38:06 83° WSW 05:43:14 10° NNW
Thor Agena Rocket 4.2 05:35:54 10° SSW 05:40:35 33° W 05:45:15 10° NNW
CZ-4C R/B 2.9 05:39:58 16° WSW 05:43:44 36° NW 05:49:18 10° NNE
Cosmos 1607 3.9 05:38:39 10° SSW 05:44:46 83° WNW 05:50:59 10° NNE
Meteor 1-28 Rocket 3.1 05:41:10 10° S 05:44:51 64° W 05:48:35 10° NNW
ATLAS 3B R/B 2.9 05:40:46 10° SW 05:48:23 83° NW 05:55:43 10° NNE
Cosmos 1110 Rocket 4.2 05:46:08 10° SSW 05:51:17 78° ESE 05:56:28 10° NNE
Okean 1 Rocket 3.9 05:48:12 10° N 05:52:33 55° E 05:56:49 10° SSE
Lacrosse 5 rocket 1.9 05:49:19 10° NW 05:52:49 47° NE 05:56:19 10° ESE
Meteor 1-27 Rocket 3.9 05:47:55 10° S 05:53:41 87° E 05:59:37 10° N
ADEOS II 3.8 05:52:00 10° NW 05:53:56 12° WNW 05:55:09 11° WNW
Cosmos 2151 Rocket 3.8 05:51:27 10° NNW 05:55:47 47° W 06:00:04 10° SSW
CSL-04 Rocket 3.8 05:50:46 10° NNE 05:56:11 83° ESE 06:01:39 10° SSW
Cosmos 1741 Rocket 4.4 05:52:22 10° NW 05:57:14 40° WSW 06:02:06 10° S
Cosmos 2082 4.1 05:53:50 10° NNW 05:59:30 70° ENE 06:05:06 10° SSE
COSMO-SKYMED 1 3.5 06:04:24 10° SSW 06:08:06 27° W 06:11:49 10° NW
Cosmos 1606 3.6 06:06:41 10° SW 06:10:02 28° WNW 06:13:26 10° NNW
Cosmos 1782 4.0 06:07:25 10° SW 06:10:32 22° WNW 06:13:41 10° NNW
Cosmos 1602 3.8 06:06:51 10° NNW 06:10:45 58° W 06:14:37 10° S
CZ-2C R/B 2.8 06:07:55 10° NNE 06:12:52 74° ESE 06:17:55 10° S
Cosmos 2369 3.7 06:08:28 10° SSW 06:14:07 85° WNW 06:19:49 10° NNE
